{"data":{"norad_id":62475,"epoch":"2026-09-19T08:32:46.541472Z","epoch_age_seconds":273363,"freshness":"STALE","line1":"1 62475U 24254P   26262.35609423  .00012155  00000+0  45006-3 0  9992","line2":"2 62475  43.0031   5.9434 0002466 283.3425  76.7152 15.27609969 97083","mean_motion":15.27609969,"eccentricity":0.0002466,"inclination_deg":43.0031,"raan_deg":5.9434,"arg_perigee_deg":283.3425,"mean_anomaly_deg":76.7152,"bstar":0.00045006,"rev_number":9708,"period_min":94.264899367124,"perigee_km":481.26741317719,"apogee_km":484.65130590171,"semimajor_km":6861.0963595394,"source":"CELESTRAK","updated_at":"2026-09-22T09:00:49.613713Z"}}